DW8215 Weather Reports


Display with metric or nautical units.
time (UTC)temp
F
wind
direction
speed
MPH
gust
MPH
rain 1hr
in
rain 24hr
in
rain mn
in
humidity
%
barometer
mb
20260510004519 45 278 0.0 10.0 0.00 0.00 0.00 51 1010.7
20260510003021 45 308 1.0 4.0 0.00 0.00 0.00 51 1010.7
20260510001517 46 306 0.0 12.0 0.00 0.00 0.00 50 1010.6
20260510000018 46 261 1.0 7.0 0.00 0.00 0.00 50 1010.3
20260509234515 46 201 2.0 8.0 0.00 0.00 0.00 49 1010.1
20260509233018 46 310 3.0 11.0 0.00 0.00 0.00 48 1010.0
20260509231512 47 300 4.0 12.0 0.00 0.00 0.00 47 1009.9
20260509230010 47 276 4.0 11.0 0.00 0.00 0.00 48 1009.7
20260509224509 47 301 4.0 9.0 0.00 0.00 0.00 47 1009.6
20260509223007 47 305 5.0 11.0 0.00 0.00 0.00 48 1009.3
20260509221505 47 309 5.0 10.0 0.00 0.00 0.00 49 1009.0
20260509220003 47 306 4.0 9.0 0.00 0.00 0.00 48 1008.8
20260509214605 48 339 4.0 12.0 0.00 0.00 0.00 49 1008.5
20260509213058 48 306 3.0 11.0 0.00 0.00 0.00 49 1008.4
20260509211605 48 310 2.0 8.0 0.00 0.00 0.00 51 1008.3
20260509210059 47 311 1.0 10.0 0.00 0.00 0.00 52 1008.1
20260509204558 48 256 3.0 11.0 0.00 0.00 0.00 51 1008.0
20260509203052 49 300 4.0 12.0 0.00 0.00 0.00 50 1007.6
20260509201550 50 284 6.0 16.0 0.00 0.00 0.00 47 1007.0
20260509194552 50 246 4.0 12.0 0.00 0.00 0.00 44 1006.4
20260509193044 50 253 4.0 10.0 0.00 0.00 0.00 44 1006.3
20260509191544 49 337 5.0 11.0 0.00 0.00 0.00 44 1006.0
20260509190041 50 284 6.0 11.0 0.00 0.00 0.00 43 1005.7
20260509184541 50 307 7.0 13.0 0.00 0.00 0.00 42 1005.5
20260509183056 51 318 6.0 11.0 0.00 0.00 0.00 44 1005.0
20260509181535 51 355 5.0 12.0 0.00 0.00 0.00 44 1004.8
20260509180033 51 330 8.0 14.0 0.00 0.00 0.00 44 1004.6
20260509174544 51 306 7.0 11.0 0.00 0.00 0.00 44 1004.1
20260509173029 52 224 6.0 13.0 0.00 0.00 0.00 42 1003.9
20260509171538 54 313 4.0 12.0 0.00 0.00 0.00 41 1003.6
20260509170025 53 333 5.0 13.0 0.00 0.00 0.00 41 1003.2
20260509164522 54 297 7.0 16.0 0.00 0.00 0.00 39 1002.7
20260509163034 53 355 10.0 16.0 0.00 0.00 0.00 40 1002.7
20260509161528 53 325 7.0 13.0 0.00 0.00 0.00 40 1002.5
20260509160019 55 309 7.0 15.0 0.00 0.00 0.00 37 1002.1
20260509154516 54 330 5.0 13.0 0.00 0.00 0.00 37 1002.0
20260509153021 54 169 2.0 14.0 0.00 0.00 0.00 41 1001.7
20260509151511 52 309 2.0 15.0 0.00 0.00 0.00 41 1001.7
20260509150019 50 271 4.0 10.0 0.00 0.00 0.00 41 1001.6
20260509144503 51 269 1.0 11.0 0.00 0.00 0.00 43 1001.4
20260509143005 50 277 3.0 12.0 0.00 0.00 0.00 41 1001.2
20260509141504 51 333 4.0 9.0 0.00 0.00 0.00 39 1000.9
20260509140107 51 315 4.0 13.0 0.00 0.00 0.00 40 1000.9
20260509140001 51 306 4.0 13.0 0.00 0.00 0.00 39 1000.7
20260509134558 50 287 2.0 9.0 0.00 0.00 0.00 44 1000.7
20260509133058 49 267 4.0 11.0 0.00 0.00 0.00 46 1000.6
20260509131558 48 253 3.0 11.0 0.00 0.00 0.00 48 1000.6
20260509130056 48 244 3.0 8.0 0.00 0.00 0.00 50 1000.6
20260509124554 48 262 1.0 8.0 0.00 0.00 0.00 51 1000.4
20260509123115 48 240 2.0 7.0 0.00 0.00 0.00 52 1000.4
20260509121559 48 271 2.0 10.0 0.00 0.00 0.00 54 1000.2
20260509120052 47 288 3.0 9.0 0.00 0.00 0.00 55 1000.2
20260509114551 45 275 1.0 4.0 0.00 0.00 0.00 58 999.9
20260509113051 44 264 1.0 9.0 0.00 0.00 0.00 59 999.8
20260509111551 44 277 3.0 10.0 0.00 0.00 0.00 60 999.7
20260509110049 43 234 1.0 8.0 0.00 0.00 0.00 61 999.5
20260509104548 43 253 3.0 9.0 0.00 0.00 0.00 61 999.4
20260509103050 43 250 0.0 3.0 0.00 0.00 0.00 62 999.1
20260509101543 44 258 0.0 0.0 0.00 0.00 0.00 60 999.0
20260509100049 45 227 2.0 4.0 0.00 0.00 0.00 58 999.1
20260509094542 45 229 1.0 7.0 0.00 0.00 0.00 60 999.3
20260509093043 44 271 0.0 0.0 0.00 0.00 0.00 65 999.4
20260509091540 45 243 0.0 0.0 0.00 0.00 0.00 67 999.2
20260509090048 44 254 0.0 0.0 0.00 0.00 0.00 64 999.3
20260509084537 45 254 0.0 0.0 0.00 0.00 0.00 65 999.2
20260509083036 45 177 0.0 0.0 0.00 0.00 0.00 62 999.1
20260509081535 45 197 0.0 3.0 0.00 0.00 0.00 63 999.1
20260509080032 47 101 0.0 0.0 0.00 0.00 0.00 61 999.3
20260509074531 47 267 0.0 0.0 0.00 0.00 0.00 56 999.1
20260509073031 47 254 0.0 2.0 0.00 0.00 0.00 56 999.2
20260509071530 46 263 0.0 2.0 0.00 0.00 0.00 59 999.1
20260509070030 46 313 0.0 0.0 0.00 0.00 0.00 66 999.1
20260509064530 47 194 0.0 0.0 0.00 0.00 0.00 64 999.1
20260509063030 49 182 0.0 0.0 0.00 0.00 0.00 56 999.2
20260509061528 50 145 0.0 2.0 0.00 0.00 0.00 54 999.2
20260509060031 50 139 0.0 5.0 0.00 0.00 0.00 51 999.4
20260509054522 49 152 0.0 4.0 0.00 0.00 0.00 52 999.3
20260509053020 48 128 1.0 5.0 0.00 0.00 0.00 54 999.7
20260509051517 47 252 0.0 2.0 0.00 0.00 0.00 56 1000.0
20260509050037 47 111 2.0 4.0 0.00 0.00 0.00 54 1000.1
20260509044513 46 265 1.0 4.0 0.00 0.00 0.00 61 1000.4
20260509043010 47 180 0.0 0.0 0.00 0.00 0.00 56 1000.6
20260509041507 48 236 0.0 0.0 0.00 0.00 0.00 56 1000.8
20260509034601 49 9 0.0 0.0 0.00 0.00 0.00 56 1001.4
20260509033059 50 9 0.0 0.0 0.00 0.00 0.00 49 1001.6
20260509031618 50 341 0.0 1.0 0.00 0.00 0.00 51 1001.9
20260509030057 50 304 0.0 2.0 0.00 0.00 0.00 54 1002.2
20260509024554 51 295 0.0 0.0 0.00 0.00 0.00 53 1002.2
20260509023058 51 295 0.0 1.0 0.00 0.00 0.00 49 1002.2
20260509021554 53 277 0.0 0.0 0.00 0.00 0.00 46 1002.3
20260509020053 53 193 0.0 3.0 0.00 0.00 0.00 41 1002.3
20260509014552 53 186 0.0 1.0 0.00 0.00 0.00 43 1002.2
20260509013055 53 180 2.0 4.0 0.00 0.00 0.00 43 1002.2
20260509011551 53 140 3.0 5.0 0.00 0.00 0.00 40 1002.3
20260509010049 53 333 0.0 0.0 0.00 0.00 0.00 45 1002.4